TimePDT,TemperatureF,Dew PointF,Humidity,Sea Level PressureIn,VisibilityMPH,Wind Direction,Wind SpeedMPH,Gust SpeedMPH,PrecipitationIn,Events,Conditions,WindDirDegrees,DateUTC
12:58 AM,49.8,43.0,77,29.84,10.0,South,3.5,-,N/A,,Clear,180,2013-05-06 07:58:00
1:58 AM,47.1,42.8,85,29.84,10.0,SSE,3.5,-,N/A,,Clear,160,2013-05-06 08:58:00
2:58 AM,47.1,43.0,86,29.84,10.0,ESE,1.2,-,N/A,,Clear,120,2013-05-06 09:58:00
3:58 AM,46.2,43.0,88,29.84,10.0,Calm,Calm,-,N/A,,Clear,0,2013-05-06 10:58:00
4:58 AM,45.5,43.5,93,29.85,10.0,SE,2.3,-,N/A,,Clear,130,2013-05-06 11:58:00
5:58 AM,44.2,41.9,91,29.86,10.0,SSW,4.6,-,N/A,,Clear,210,2013-05-06 12:58:00
7:58 AM,56.7,45.5,66,29.87,10.0,Calm,Calm,-,N/A,,Clear,0,2013-05-06 14:58:00
8:58 AM,63.3,43.2,48,29.87,10.0,Calm,Calm,-,N/A,,Clear,0,2013-05-06 15:58:00
9:56 AM,68.0,42.8,40,29.86,8.0,Variable,1.2,-,N/A,,Clear,0,2013-05-06 16:56:00
10:56 AM,73.4,42.8,33,29.86,10.0,NNW,5.8,-,N/A,,Clear,340,2013-05-06 17:56:00
11:58 AM,76.6,47.7,36,29.86,10.0,North,5.8,-,N/A,,Clear,360,2013-05-06 18:58:00
12:58 PM,78.3,48.6,35,29.84,10.0,NNW,8.1,-,N/A,,Clear,340,2013-05-06 19:58:00
1:58 PM,81.5,48.9,32,29.83,10.0,Variable,4.6,-,N/A,,Clear,0,2013-05-06 20:58:00
2:58 PM,84.4,44.1,24,29.82,10.0,Variable,5.8,-,N/A,,Clear,0,2013-05-06 21:58:00
3:58 PM,85.6,44.2,23,29.80,10.0,WNW,8.1,-,N/A,,Clear,300,2013-05-06 22:58:00
4:58 PM,86.0,44.2,23,29.79,10.0,NW,5.8,-,N/A,,Clear,310,2013-05-06 23:58:00
5:58 PM,83.5,53.4,35,29.79,10.0,WNW,10.4,-,N/A,,Clear,290,2013-05-07 00:58:00
6:58 PM,78.6,52.3,40,29.78,10.0,WNW,9.2,-,N/A,,Clear,290,2013-05-07 01:58:00
7:58 PM,73.6,50.0,43,29.80,10.0,WNW,5.8,-,N/A,,Clear,300,2013-05-07 02:58:00
8:58 PM,68.5,50.5,53,29.81,10.0,WNW,4.6,-,N/A,,Clear,300,2013-05-07 03:58:00
9:58 PM,64.9,50.9,60,29.82,10.0,Variable,3.5,-,N/A,,Clear,0,2013-05-07 04:58:00
10:58 PM,61.9,50.0,65,29.85,10.0,Calm,Calm,-,N/A,,Clear,0,2013-05-07 05:58:00
11:58 PM,59.7,49.1,68,29.85,10.0,WNW,2.3,-,N/A,,Clear,300,2013-05-07 06:58:00